Find Starlink 11523

NORAD ID: 62565 Int'l Des: 2025-006 Owner: SPXS Country: US Constellation: starlink operational
LEOCIRCULAR

リアルタイム位置

3D地球を読み込み中...

Starlink 11523について

説明を読み込み中...

次回通過

Passes for default location (London). Set your location on the main map for personalized predictions.

高度履歴

Loading altitude history...

軌道要素

1 62565U 25006M 26124.15892936 .00158212 00000-0 12100-2 0 9990
2 62565 43.0016 165.7761 0001708 262.0787 97.9887 15.70901670 75322
Epoch: May 4, 2026 • Age: 12 hours

現在のステータス

高度 368.0 km
速度 7.69 km/s
衛星直下点 -43.12°S, 27.35°W
打ち上げ日 Jan 10, 2025
運用期間 1.3 years
タイプ internet

技術仕様

分類 Payload
質量 960.00 kg
乾燥質量 910.00 kg
総質量 960.00 kg
長さ 0.30 m
直径 4.10 m
スパン 29.00 m
形状 Box + pan
製造者 SPXS
バスタイプ Starlink V2MD
フェーズステータス In Orbit
所有者/国 SPXS/US

Most Searched